Cancun, Mexico

4:39 PM EST on July 24, 2016 (GMT -0500)
Cancun

Weather History for 76590 - September, 2013

Change the Weather History Date:

Saturday, September 7, 2013

  Actual Average Record
Temperature  
Mean Temperature 82 °F -  
Max Temperature 87 °F 88 °F - ()
Min Temperature 77 °F 73 °F - ()
Cooling Degree Days 17    
Growing Degree Days 32 (Base 50)    
Moisture  
Dew Point 75 °F    
Average Humidity 82    
Maximum Humidity 94    
Minimum Humidity 62    
Precipitation  
Precipitation 0.00 in - - ()
Sea Level Pressure  
Sea Level Pressure 29.90 in    
Wind  
Wind Speed 5 mph ()    
Max Wind Speed 16 mph    
Max Gust Speed -    
Visibility 7.0 miles    
Events      
T = Trace of Precipitation, MM = Missing Value Source: Averaged Metar Reports

Daily Weather History Graph

Daily Weather History Graph

Search for Another Location

Airport or City:

Trip Planner

Search our weather history database for the weather conditions in past years. The results will help you decide how hot, cold, wet, or windy it might be!

Date:

Astronomy

Sep. 07, 2013 Rise Set
Actual Time 6:32 AM CDT 6:57 PM CDT
Civil Twilight 6:10 AM CDT 7:20 PM CDT
Nautical Twilight 5:44 AM CDT 7:46 PM CDT
Astronomical Twilight 5:17 AM CDT 8:12 PM CDT
Moon 8:22 AM CDT (9/7) 8:22 PM CDT (9/7)
Length of Visible Light 13h 09m
Length of Day
12h 24m
Waxing Crescent, 5% of the Moon is Illuminated
Sep 7
Waxing Crescent
Sep 12
First Quarter
Sep 19
Full
Sep 26
Last Quarter
Oct 4
New

Hourly Weather History & Observations

Time (CDT) Temp. Heat Index Dew Point Humidity Pressure Visibility Wind Dir Wind Speed Gust Speed Precip Events Conditions
12:45 AM 80.6 °F 87.1 °F 77.0 °F 89% 29.87 in 7.0 mi East 5.8 mph - N/A   Mostly Cloudy
1:44 AM 80.6 °F 87.1 °F 77.0 °F 89% 29.90 in 7.0 mi ENE 5.8 mph - N/A   Mostly Cloudy
2:43 AM 78.8 °F - 77.0 °F 94% 29.88 in 7.0 mi Calm Calm - N/A   Mostly Cloudy
3:46 AM 78.8 °F - 77.0 °F 94% 29.86 in 7.0 mi NE 5.8 mph - N/A   Mostly Cloudy
4:45 AM 78.8 °F - 77.0 °F 94% 29.88 in 7.0 mi ENE 5.8 mph - N/A   Mostly Cloudy
5:44 AM 78.8 °F - 75.2 °F 89% 29.90 in 7.0 mi NE 5.8 mph - N/A   Mostly Cloudy
6:45 AM 78.8 °F - 77.0 °F 94% 29.90 in 7.0 mi NE 2.3 mph - N/A   Mostly Cloudy
7:44 AM 82.4 °F 89.5 °F 75.2 °F 79% 29.91 in 7.0 mi SE 12.7 mph - N/A   Mostly Cloudy
8:42 AM 84.2 °F 94.1 °F 77.0 °F 79% 29.94 in 7.0 mi ESE 11.5 mph - N/A   Mostly Cloudy
9:41 AM 84.2 °F 92.3 °F 75.2 °F 74% 29.95 in 7.0 mi SE 16.1 mph - N/A   Mostly Cloudy
10:41 AM 84.2 °F 92.3 °F 75.2 °F 74% 29.96 in 7.0 mi SE 11.5 mph - N/A   Mostly Cloudy
11:40 AM 86.0 °F 91.8 °F 71.6 °F 62% 29.94 in 7.0 mi ESE 8.1 mph - N/A   Mostly Cloudy
12:40 PM 86.0 °F 93.4 °F 73.4 °F 66% 29.93 in 7.0 mi SE 5.8 mph - N/A   Mostly Cloudy
1:42 PM 86.0 °F 93.4 °F 73.4 °F 66% 29.91 in 7.0 mi SE 8.1 mph - N/A   Mostly Cloudy
2:42 PM 87.8 °F 95.6 °F 73.4 °F 62% 29.89 in 7.0 mi ESE 8.1 mph - N/A   Mostly Cloudy
3:45 PM 84.2 °F 92.3 °F 75.2 °F 74% 29.88 in 7.0 mi ENE 4.6 mph - N/A   Mostly Cloudy
4:41 PM 82.4 °F 90.9 °F 77.0 °F 84% 29.88 in 7.0 mi NE 2.3 mph - N/A   Mostly Cloudy
5:42 PM 82.4 °F 90.9 °F 77.0 °F 84% 29.87 in 7.0 mi ENE 3.5 mph - N/A   Mostly Cloudy
6:45 PM 82.4 °F 90.9 °F 77.0 °F 84% 29.87 in 7.0 mi Calm Calm - N/A   Mostly Cloudy
7:40 PM 78.8 °F - 71.6 °F 78% 29.88 in 7.0 mi NNE 5.8 mph - N/A   Mostly Cloudy
8:44 PM 77.0 °F - 73.4 °F 89% 29.90 in 7.0 mi Calm Calm - N/A   Mostly Cloudy
9:43 PM 77.0 °F - 75.2 °F 94% 29.90 in 7.0 mi North 2.3 mph - N/A   Mostly Cloudy
10:43 PM 77.0 °F - 75.2 °F 94% 29.91 in 7.0 mi Calm Calm - N/A   Mostly Cloudy
11:47 PM 80.6 °F 86.2 °F 75.2 °F 84% 29.91 in 7.0 mi NE 3.5 mph - N/A   Mostly Cloudy